Wind_Speed
103 103 102 101 100 98 96 94 92 90 87 83 79 78 75 70 64 60 57 54 52 50 48 48 48 48 47 46 46 45 43 44 45 47 50 54 58 63 68 73 77 82
105 105 104 103 102 100 98 96 94 92 88 84 79 77 75 71 65 60 57 54 52 50 48 47 47 47 47 46 46 46 44 43 44 45 48 51 55 60 65 70 75 79
107 106 105 105 104 102 100 98 96 93 90 85 80 76 74 71 66 61 57 55 53 50 47 46 46 47 47 46 46 46 45 44 43 44 46 49 53 57 62 67 72 76
109 108 107 106 106 104 101 100 97 95 91 87 81 75 73 71 66 61 57 55 53 50 47 46 45 46 46 46 45 46 46 45 44 43 44 46 50 54 58 63 69 73
111 110 109 108 107 105 103 100 98 95 91 87 82 75 72 71 67 61 57 54 52 50 47 45 45 45 45 45 45 45 46 46 45 44 44 45 48 51 55 60 65 70
113 112 111 109 108 106 103 101 98 95 91 87 82 76 71 70 67 62 57 54 52 50 47 45 44 44 44 45 44 43 45 46 46 45 44 44 46 49 53 57 61 66
115 114 112 111 109 107 104 101 98 95 91 86 81 76 71 70 68 62 57 54 52 50 48 45 44 44 44 44 44 43 43 45 46 45 44 44 45 47 50 54 58 62
116 115 113 111 110 108 104 101 98 94 90 85 81 75 71 69 68 63 57 55 52 49 48 45 44 43 43 44 43 42 42 43 45 46 44 44 45 46 48 52 55 58
118 116 113 112 110 108 104 101 97 93 88 84 79 75 71 68 68 64 58 55 52 49 47 45 44 43 43 43 43 42 41 41 44 46 44 43 44 45 47 50 53 56
119 116 113 111 109 107 103 99 95 91 86 82 77 74 70 68 68 65 59 55 52 50 47 45 44 43 43 43 43 42 41 40 41 45 45 43 43 45 46 48 51 54
119 116 112 110 107 105 101 97 93 88 84 80 76 72 70 67 67 66 60 55 53 50 48 46 43 43 43 43 43 43 42 40 40 43 45 43 42 44 45 46 48 52
118 114 111 108 105 102 99 94 90 86 82 78 74 71 69 67 67 66 60 55 53 50 48 46 44 43 43 43 43 43 42 40 39 41 44 43 42 42 44 46 46 49
116 112 108 105 102 99 96 91 87 83 80 77 73 70 68 66 67 66 61 55 53 51 48 46 44 43 43 43 43 42 41 40 38 40 42 43 42 42 43 45 46 47
114 109 104 100 98 95 93 88 84 81 78 76 72 69 67 66 66 66 61 55 54 52 49 47 44 43 42 43 43 43 41 39 38 40 41 42 42 42 41 43 45 45
109 104 100 97 94 92 90 85 81 79 77 74 71 68 66 65 66 66 61 55 54 52 49 47 44 42 42 43 44 43 41 39 38 39 40 40 41 42 41 42 43 44
103 99 96 94 92 90 87 83 79 77 75 72 70 67 65 65 66 66 61 55 53 52 49 47 44 42 42 43 44 44 41 39 38 38 39 40 40 41 42 41 42 43
98 95 93 92 90 87 84 80 77 75 73 70 68 66 64 64 65 65 60 55 53 52 49 47 44 41 42 43 45 44 41 39 38 38 38 38 39 40 41 42 41 41
95 92 90 89 87 85 82 77 75 73 70 68 66 64 63 63 64 64 59 54 53 51 49 47 43 41 41 43 44 43 41 40 39 38 37 37 38 39 40 42 41 40
92 90 88 86 84 82 78 74 72 69 67 65 64 62 61 61 63 63 58 54 53 51 49 46 43 40 41 43 44 42 41 40 39 38 36 37 38 38 40 41 41 40
89 86 84 82 80 78 74 71 68 66 63 62 61 60 59 60 61 60 56 53 52 51 49 46 42 40 41 43 43 42 40 40 40 38 36 36 37 38 39 40 40 40
85 82 80 78 76 74 71 67 65 63 61 59 58 57 57 58 59 58 54 52 51 50 48 46 42 39 40 42 42 41 40 40 41 38 36 36 36 37 38 39 39 40
82 79 77 75 73 70 67 64 61 60 58 57 56 55 56 57 57 55 52 51 50 49 47 46 42 39 40 41 41 40 39 40 40 39 37 35 35 36 37 38 38 39
79 77 75 73 70 67 64 61 59 58 56 55 54 54 54 55 55 53 51 50 49 47 46 45 42 39 40 41 40 39 39 40 40 39 37 36 34 35 36 37 37 38
77 74 73 71 68 64 61 59 57 56 54 53 53 53 53 53 52 51 50 49 47 46 46 44 41 39 40 41 39 38 38 39 39 39 37 36 34 35 36 36 36 37
74 72 70 68 65 62 59 57 56 55 53 52 52 52 52 51 50 49 48 47 46 45 45 43 40 39 40 40 38 37 38 39 39 38 37 35 34 35 35 35 36 37
71 69 68 65 63 60 58 56 56 53 51 51 51 50 50 50 48 48 47 46 45 45 44 42 40 39 39 39 38 37 38 39 38 37 36 35 34 34 34 35 36 36
Wind_Direction
323 323 323 324 324 324 325 325 325 325 325 325 325 322 320 319 317 314 311 308 305 304 301 298 295 292 289 285 280 275 268 263 260 256 251 247 244 241 239 237 235 233
322 323 323 323 323 324 324 324 324 324 324 324 323 321 319 318 316 314 311 308 306 304 302 299 295 292 289 286 282 277 271 265 260 257 252 248 244 242 239 237 236 234
322 322 322 323 323 323 323 323 323 323 323 322 322 320 318 316 315 313 311 308 306 304 302 299 295 292 289 286 283 279 274 268 263 258 254 250 246 242 240 238 237 235
321 321 322 322 322 322 322 322 322 322 321 321 320 319 317 315 314 312 310 308 306 304 302 299 296 292 289 286 283 280 276 271 266 261 255 251 247 243 240 238 237 236
320 321 321 321 321 321 321 321 321 321 320 319 318 317 316 314 313 311 309 307 306 304 302 300 296 292 289 286 283 280 277 273 268 264 259 253 249 245 242 239 237 236
320 320 320 320 320 320 320 320 320 319 318 318 317 316 314 312 311 310 308 306 305 303 301 299 296 292 288 286 283 280 277 273 270 266 262 257 252 248 244 241 238 236
319 319 319 320 319 319 319 319 319 318 317 316 315 314 313 311 310 309 307 305 304 303 301 299 296 292 289 285 283 280 277 273 270 267 264 260 256 251 247 243 240 237
318 318 319 319 318 318 318 318 317 317 316 315 314 313 312 309 308 308 306 304 303 302 300 299 296 292 288 285 283 280 277 273 270 267 264 261 258 254 250 247 242 239
317 317 318 318 317 317 317 317 316 315 314 313 312 311 310 308 306 306 305 303 302 302 300 298 295 292 289 285 282 280 277 273 270 267 264 261 259 256 252 249 246 242
316 316 317 317 316 316 316 315 314 313 313 312 311 310 308 306 305 304 304 303 301 301 299 297 295 292 288 285 282 280 277 274 270 267 265 261 259 257 253 250 247 244
315 315 316 316 315 315 314 313 312 312 311 310 310 308 307 305 303 302 303 302 300 300 298 296 294 292 289 285 282 280 278 275 270 267 265 262 259 258 255 251 247 245
314 314 315 314 314 313 312 311 311 310 310 309 308 307 305 303 301 301 301 301 299 299 297 296 294 291 288 286 282 280 278 275 272 267 265 264 260 258 257 254 248 245
313 314 314 313 313 311 310 309 309 309 309 308 306 305 303 301 300 299 300 300 298 297 297 295 293 291 288 286 282 279 277 276 273 269 266 264 262 259 257 256 252 246
312 313 312 312 311 309 308 308 308 308 307 306 305 303 301 299 298 297 299 299 297 296 296 294 293 291 288 286 282 279 277 275 274 271 267 265 263 261 258 257 255 251
311 311 311 310 309 307 306 307 307 307 306 304 303 302 300 298 296 295 297 298 295 295 294 293 292 291 288 285 282 279 277 275 273 272 269 266 264 263 260 258 256 254
310 310 309 308 307 306 306 306 307 306 304 303 302 300 298 296 294 294 296 296 294 293 293 292 291 290 287 285 282 279 277 275 273 272 270 268 265 264 263 260 257 255
309 309 308 307 306 305 305 306 305 304 303 302 301 299 296 294 293 293 295 295 293 292 292 291 290 289 287 284 281 279 277 275 273 273 272 269 266 264 264 262 259 256
308 308 307 306 305 304 304 305 304 303 302 301 299 297 295 293 291 292 294 294 292 291 291 290 289 288 285 282 280 279 277 275 273 273 273 270 267 265 264 263 262 258
308 307 306 305 304 303 304 304 303 302 301 299 297 296 294 292 290 291 293 293 291 290 290 289 288 287 284 281 280 279 277 275 274 273 273 272 268 266 264 264 263 261
307 306 305 304 303 303 303 302 301 300 299 297 296 294 292 291 290 291 292 291 289 289 289 288 287 286 282 281 280 279 277 275 274 274 274 273 269 267 265 264 264 263
307 306 305 304 303 302 302 301 300 299 297 296 294 293 291 290 289 290 291 289 288 288 287 286 286 284 281 279 279 278 277 275 274 274 274 273 270 268 266 265 265 264
307 306 305 304 303 302 302 300 299 298 296 295 293 292 290 289 289 290 289 288 286 286 285 285 285 283 280 278 277 277 276 274 274 275 274 273 271 268 267 266 266 265
307 306 305 304 303 303 301 300 299 297 296 295 293 291 290 289 289 289 288 286 285 285 284 283 283 281 278 277 277 276 274 273 273 274 274 274 272 269 268 267 267 266
307 306 305 304 304 303 302 300 299 297 296 294 292 291 289 289 289 288 287 286 285 284 283 282 282 280 277 276 276 275 273 272 272 273 274 274 273 271 269 268 267 267
307 306 304 304 304 303 302 300 298 297 296 294 291 290 289 288 288 287 286 285 284 283 282 281 280 278 275 275 275 274 272 271 271 272 273 274 273 272 270 269 268 267
307 306 305 304 304 303 302 300 298 296 295 292 291 289 288 287 287 286 285 285 284 282 281 280 278 276 274 274 274 273 272 270 270 270 272 273 273 273 272 271 270 268
Height
10254 10246 10238 10230 10223 10216 10209 10202 10196 10191 10186 10180 10174 10167 10161 10155 10150 10145 10140 10134 10129 10124 10120 10115 10111 10108 10106 10104 10103 10102 10102 10101 10101 10101 10101 10102 10103 10104 10106 10109 10113 10117
10244 10236 10228 10220 10212 10205 10198 10192 10185 10180 10174 10169 10164 10158 10151 10145 10140 10135 10130 10125 10120 10116 10111 10107 10103 10100 10097 10095 10094 10092 10092 10092 10091 10092 10092 10093 10093 10094 10096 10098 10101 10105
10233 10226 10218 10209 10201 10194 10187 10181 10174 10168 10163 10158 10154 10149 10142 10136 10131 10126 10121 10115 10111 10107 10103 10099 10095 10091 10089 10087 10085 10083 10082 10082 10082 10082 10082 10083 10083 10085 10086 10088 10090 10093
10221 10214 10206 10199 10190 10183 10177 10170 10163 10157 10152 10147 10142 10138 10132 10126 10121 10117 10112 10106 10102 10097 10094 10090 10087 10083 10080 10078 10076 10074 10073 10072 10071 10072 10073 10073 10073 10075 10077 10078 10080 10083
10208 10201 10194 10187 10179 10172 10166 10159 10152 10146 10140 10135 10131 10127 10122 10116 10111 10107 10103 10098 10093 10088 10084 10081 10078 10075 10072 10069 10068 10066 10064 10062 10062 10062 10062 10063 10063 10064 10066 10068 10070 10073
10196 10188 10181 10175 10167 10160 10154 10148 10142 10135 10129 10124 10119 10115 10111 10105 10101 10097 10093 10088 10084 10079 10075 10072 10068 10066 10063 10061 10059 10058 10055 10053 10052 10052 10052 10053 10053 10054 10056 10058 10060 10063
10183 10175 10169 10162 10154 10148 10142 10136 10129 10124 10117 10112 10107 10103 10099 10094 10090 10086 10082 10078 10074 10070 10066 10062 10059 10057 10054 10052 10050 10049 10047 10045 10043 10043 10042 10043 10043 10044 10045 10047 10049 10052
10169 10163 10156 10150 10142 10135 10129 10123 10117 10111 10105 10100 10094 10090 10087 10082 10078 10075 10072 10068 10064 10060 10057 10053 10050 10047 10045 10042 10041 10040 10039 10037 10035 10034 10033 10033 10033 10034 10035 10036 10038 10041
10155 10149 10144 10137 10129 10123 10117 10111 10105 10099 10093 10088 10082 10078 10075 10071 10066 10063 10061 10057 10054 10050 10047 10043 10041 10038 10036 10033 10032 10031 10030 10029 10027 10025 10024 10025 10024 10024 10025 10025 10027 10030
10141 10135 10130 10124 10117 10110 10104 10098 10092 10087 10081 10075 10070 10066 10062 10059 10055 10051 10049 10047 10043 10040 10037 10034 10031 10028 10026 10024 10022 10021 10020 10020 10019 10016 10015 10016 10015 10015 10015 10016 10017 10018
10127 10121 10116 10111 10104 10097 10091 10085 10079 10074 10069 10063 10059 10054 10050 10047 10043 10039 10037 10035 10032 10029 10026 10023 10021 10019 10017 10015 10013 10011 10010 10011 10010 10008 10006 10007 10007 10006 10005 10005 10007 10008
10113 10108 10102 10097 10090 10084 10077 10072 10066 10061 10056 10051 10047 10043 10038 10035 10031 10028 10026 10024 10021 10019 10016 10013 10011 10009 10007 10005 10003 10002 10000 10001 10001 9999 9997 9997 9997 9997 9995 9995 9997 9998
10098 10094 10089 10083 10077 10070 10063 10058 10054 10048 10044 10039 10035 10031 10027 10023 10020 10016 10014 10013 10010 10007 10005 10003 10000 9999 9997 9995 9993 9992 9991 9991 9991 9990 9989 9988 9988 9988 9987 9985 9986 9988
10084 10080 10075 10069 10063 10055 10049 10045 10041 10036 10031 10026 10023 10019 10015 10012 10008 10005 10003 10002 9999 9996 9995 9992 9990 9988 9987 9985 9983 9982 9982 9981 9981 9980 9979 9979 9978 9978 9977 9976 9976 9977
10071 10066 10061 10055 10048 10041 10035 10031 10028 10024 10019 10014 10010 10007 10003 10000 9996 9993 9992 9991 9988 9986 9984 9982 9980 9978 9976 9974 9972 9972 9972 9972 9971 9971 9970 9970 9969 9968 9968 9967 9967 9967
10058 10053 10047 10040 10033 10027 10021 10018 10015 10011 10006 10002 9998 9995 9991 9988 9984 9981 9981 9980 9978 9975 9973 9971 9970 9969 9967 9964 9962 9962 9962 9963 9962 9961 9961 9960 9960 9959 9958 9958 9958 9957
10044 10038 10032 10025 10019 10013 10008 10006 10002 9998 9994 9990 9986 9982 9979 9976 9972 9970 9970 9969 9967 9965 9963 9961 9960 9959 9957 9955 9952 9952 9953 9952 9952 9952 9952 9951 9951 9950 9949 9948 9948 9948
10029 10023 10018 10011 10004 9999 9995 9993 9990 9985 9982 9978 9974 9970 9967 9964 9961 9959 9958 9958 9956 9954 9952 9951 9950 9950 9947 9945 9943 9943 9943 9942 9942 9942 9943 9942 9942 9941 9940 9939 9938 9939
10014 10009 10003 9997 9990 9985 9982 9980 9977 9973 9970 9966 9962 9959 9956 9952 9949 9948 9947 9947 9945 9943 9941 9941 9941 9940 9938 9935 9933 9934 9934 9933 9932 9933 9934 9933 9933 9932 9931 9930 9929 9930
10000 9994 9989 9983 9977 9973 9970 9967 9964 9961 9958 9955 9951 9948 9944 9941 9939 9937 9937 9936 9934 9932 9930 9930 9931 9931 9928 9925 9924 9924 9925 9923 9922 9923 9925 9925 9924 9923 9922 9921 9921 9920
9985 9980 9975 9969 9964 9960 9957 9955 9952 9950 9946 9943 9940 9936 9933 9930 9928 9927 9926 9925 9924 9922 9920 9919 9921 9921 9919 9916 9915 9915 9915 9914 9912 9914 9915 9916 9916 9915 9913 9913 9912 9911
9971 9965 9961 9956 9951 9948 9945 9942 9940 9937 9935 9932 9929 9925 9922 9920 9918 9917 9916 9915 9914 9912 9910 9909 9911 9911 9909 9907 9907 9907 9907 9905 9903 9904 9906 9907 9907 9906 9905 9904 9904 9903
9957 9952 9947 9943 9939 9936 9933 9930 9928 9925 9923 9920 9917 9914 9911 9909 9907 9906 9906 9905 9903 9902 9900 9900 9901 9901 9899 9898 9898 9899 9898 9896 9895 9896 9896 9898 9898 9897 9896 9896 9895 9894
9943 9939 9934 9930 9927 9924 9921 9918 9915 9913 9911 9908 9905 9902 9900 9898 9897 9896 9895 9894 9893 9892 9890 9890 9892 9892 9890 9889 9889 9890 9889 9888 9887 9887 9888 9889 9889 9889 9888 9887 9887 9886
9931 9926 9921 9918 9915 9912 9909 9906 9903 9901 9899 9896 9893 9892 9889 9888 9887 9886 9885 9884 9883 9882 9880 9881 9882 9882 9881 9880 9881 9881 9881 9880 9880 9879 9880 9880 9880 9880 9879 9879 9879 9878
9918 9914 9909 9906 9903 9900 9897 9894 9891 9890 9888 9885 9883 9881 9879 9878 9877 9876 9875 9875 9874 9872 9871 9871 9873 9873 9872 9871 9872 9873 9872 9872 9872 9872 9872 9872 9872 9871 9871 9871 9870 9870